Weather Roundup
Issued by NWS Chicago, IL

Home | Current Version | Previous Version | Graphics & Text | Print | Product List | Glossary On
Versions: 1 2 3 4 5 6 7 8 9 10 11 12 13 14 15 16 17 18 19 20 21 22 23 24 25 26 27 28 29 30 31 32 33 34 35 36 37 38 39 40 41 42 43 44 45 46 47 48 49 50
000
NZUS59 KLOT 250609
HRRLOT

CHICAGO AREA WEATHER ROUNDUP
NATIONAL WEATHER SERVICE CHICAGO/ROMEOVILLE IL
100 AM CDT THU MAY 25 2017

NOTE: "FAIR" INDICATES FEW OR NO CLOUDS BELOW 12,000 FEET WITH NO
SIGNIFICANT WEATHER AND/OR OBSTRUCTIONS TO VISIBILITY.

* THESE STATIONS ARE NOT UNDER NWS QUALITY CONTROL. THEY ALSO MAY NOT
  REPORT WEATHER SUCH AS PRECIPITATION OR FOG.

ILZ005-006-012>014-019>023-250700-
NORTHEAST ILLINOIS

CITY           SKY/WX    TMP DP  RH WIND       PRES   REMARKS
OHARE          CLOUDY    55  50  83 N12       29.55F
6HR MIN TEMP:  54; 6HR MAX TEMP:  60; 6HR PCP: TRACE;

MIDWAY         CLOUDY    54  50  86 N14       29.54F
6HR MIN TEMP:  52; 6HR MAX TEMP:  55;

AURORA         CLOUDY    57  52  83 N9        29.57F
6HR MIN TEMP:  57; 6HR MAX TEMP:  61; 6HR PCP: TRACE;

LANSING*       CLOUDY    52  51  98 N7        29.54S
JOLIET*        PTCLDY    55  53  91 N6        29.55F
WAUKEGAN       CLOUDY    53  50  89 N8        29.57S
6HR MIN TEMP:  52; 6HR MAX TEMP:  58;

DUPAGE AIRPORT CLOUDY    55  52  89 N9        29.56S
6HR MIN TEMP:  54; 6HR MAX TEMP:  61; 6HR PCP: TRACE;

WHEELING       CLOUDY    54  52  93 N10       29.57F
6HR MIN TEMP:  53; 6HR MAX TEMP:  59; 6HR PCP: TRACE;

KANKAKEE*      CLOUDY    53  52  97 N9        29.54S
MORRIS*        CLOUDY    55  51  86 CALM      29.55S
LEWIS AIRPORT* MOCLDY    54  53  95 N8        29.55F
NORTHERLY ISL    N/A     53  49  86 N13         N/A
$$

WIZ051-052-058>065-066-070>072-250700-
SOUTHEAST WISCONSIN

CITY           SKY/WX    TMP DP  RH WIND       PRES   REMARKS
MILWAUKEE      CLOUDY    55  51  86 N13       29.59S
6HR MIN TEMP:  54; 6HR MAX TEMP:  58;

KENOSHA*       CLOUDY    54  49  83 N10       29.59R
RACINE*        CLOUDY    52  48  86 N15G24    29.60S
WAUKESHA       CLOUDY    50  48  93 N7        29.62S
WEST BEND      CLOUDY    52  50  93 N9        29.63S
$$

INZ001>003-010>013-019-020-250700-
NORTHWEST INDIANA

CITY           SKY/WX    TMP DP  RH WIND       PRES   REMARKS
GARY*          CLOUDY    52  50  93 NW17      29.54S
6HR MIN TEMP:  51; 6HR MAX TEMP:  52; 6HR PCP:  0.01;

MICHIGAN CITY* NOT AVBL
RENSSELAER*    NOT AVBL
VALPARAISO     CLOUDY    52  50  93 NW9       29.50F FOG
$$

LMZ740>746-250700-
SOUTHERN LAKE MICHIGAN

STATION/POSITION TIME  SKY/WX   TEMP WIND        PRES    VSBY
                                AIR  DIR/SP/G
                 (UTC)          (F)  (DEG/KT/KT) (MB)    (MI)
HARRISON CRIB    0540            51  340/ 25/ 27   N/A
BURNHAM HARBOR   0600            53  340/  9/ 12   N/A
CALUMET HARBOR   0548            52  330/ 10/ 14 1000.1F
BURNS HARBOR     0540            49  340/ 17/ 21 1000.3S
MICHIGAN CITY    0540            50  340/ 20/ 22   N/A
$$

ABBREVIATIONS USED IN REMARKS
   TC - TEMPERATURE IN CELSIUS
  WCI - WIND CHILL INDEX
   HX - HEAT INDEX
  VSB - VISIBILITY
$$




USA.gov is the U.S. government's official web portal to all federal, state and local government web resources and services.